Location: Croydon
(51.3762°N, 0.0982°W)
Time: 22:15:24
(UTC+01:00)

VELOX 1 - Pass Details

Date: 01 May 2019
Orbit: 630 x 644 km, 98.2° (Epoch: 26 May)

Event Time Altitude Azimuth Distance (km) Brightness Sun altitude
Exits shadow 00:57:52 24° 95° (E) 1,330 ? -23.7°
Maximum altitude 00:59:17 29° 63° (ENE) 1,177 ? -23.7°
Drops below altitude 10° 01:03:03 10° 4° (N) 2,025 ? -23.7°
Sets 01:05:29 0° 353° (N) 2,940 ? -23.7°
